UAL71 EHAM-KEWR

Flight info

Callsign UAL71
Flight time N/A
Altitude 38000
Route BERGI3N BERGI L60 OTBED DCT ABLUC DCT OZRAT DCT WETFI DCT REVNU DCT RESNO/M082F380 NATA TUDEP/N0467F380 N526A TOPPS DCT HANAA FLOSI4
Aircraft B772/H-SDE2E3FGHIJ5LORVWXY/LB1D1

Departure

Time 2026-04-29 09:23
Airport Amsterdam Airport Schiphol (EHAM)

Arrival

Time N/A
Airport Newark Liberty International Airport (KEWR)
Time Latitude Longitude Altitude Speed Heading
2026-04-29 09:17 52.32268 4.73106 5 ft 16 kts 319°
2026-04-29 09:18 52.32355 4.72982 3 ft 17 kts 319°
2026-04-29 09:18 52.32442 4.72858 2 ft 17 kts 319°
2026-04-29 09:18 52.32530 4.72736 1 ft 17 kts 320°
2026-04-29 09:18 52.32618 4.72613 2 ft 17 kts 319°
2026-04-29 09:19 52.32700 4.72482 4 ft 17 kts 312°
2026-04-29 09:19 52.32781 4.72332 3 ft 18 kts 311°
2026-04-29 09:19 52.32838 4.72188 3 ft 14 kts 282°
2026-04-29 09:19 52.32839 4.72030 2 ft 14 kts 268°
2026-04-29 09:20 52.32879 4.71891 4 ft 14 kts 312°
2026-04-29 09:20 52.32944 4.71773 7 ft 14 kts 311°
2026-04-29 09:20 52.33008 4.71655 10 ft 14 kts 311°
2026-04-29 09:20 52.33062 4.71525 15 ft 14 kts 296°
2026-04-29 09:21 52.33054 4.71380 17 ft 14 kts 226°
2026-04-29 09:21 52.32982 4.71273 17 ft 14 kts 222°
2026-04-29 09:21 52.32910 4.71167 19 ft 14 kts 222°
2026-04-29 09:21 52.32863 4.71033 19 ft 14 kts 262°
2026-04-29 09:22 52.32894 4.70903 20 ft 11 kts 319°
2026-04-29 09:22 52.32928 4.70891 19 ft 0 kts
2026-04-29 09:22 52.33047 4.70902 17 ft 50 kts
2026-04-29 09:22 52.33617 4.70950 26 ft 114 kts
2026-04-29 09:23 52.34566 4.71068 213 ft 146 kts
2026-04-29 09:23 52.35616 4.71139 779 ft 161 kts
2026-04-29 09:23 52.36800 4.71264 1349 ft 184 kts 10°
2026-04-29 09:23 52.38198 4.71422 1793 ft 212 kts 10°
2026-04-29 09:24 52.39696 4.71571 2487 ft 219 kts 11°
2026-04-29 09:24 52.41232 4.71719 2942 ft 221 kts 11°
2026-04-29 09:24 52.42798 4.71869 3237 ft 232 kts 11°
2026-04-29 09:24 52.44475 4.72039 3617 ft 247 kts 10°
2026-04-29 09:25 52.46217 4.72207 4242 ft 254 kts
2026-04-29 09:25 52.47996 4.72375 4957 ft 257 kts
2026-04-29 09:25 52.49794 4.72546 5657 ft 260 kts
2026-04-29 09:25 52.51610 4.72718 6355 ft 263 kts
2026-04-29 09:26 52.53444 4.72892 7048 ft 266 kts
2026-04-29 09:26 52.55274 4.73071 7712 ft 268 kts
2026-04-29 09:26 52.57147 4.73231 8344 ft 271 kts
2026-04-29 09:26 52.59020 4.72485 8806 ft 289 kts 333°
2026-04-29 09:27 52.60496 4.70207 9488 ft 295 kts 309°
2026-04-29 09:27 52.61687 4.67425 10117 ft 299 kts 308°
2026-04-29 09:27 52.62883 4.64590 10718 ft 305 kts 308°
2026-04-29 09:27 52.64133 4.61616 10890 ft 327 kts 308°
2026-04-29 09:28 52.65470 4.58431 11090 ft 349 kts 307°
2026-04-29 09:28 52.66875 4.55079 11549 ft 361 kts 307°
2026-04-29 09:28 52.68316 4.51636 12177 ft 369 kts 308°
2026-04-29 09:28 52.69782 4.48131 12986 ft 373 kts 308°
2026-04-29 09:29 52.71174 4.44782 14893 ft 314 kts 309°
2026-04-29 09:29 52.73390 4.39456 17684 ft 273 kts 310°
2026-04-29 09:29 52.74514 4.36803 17816 ft 290 kts 309°
2026-04-29 09:30 52.75515 4.33806 17917 ft 308 kts 296°
2026-04-29 09:30 52.76264 4.30390 18066 ft 325 kts 291°
2026-04-29 09:30 52.76961 4.26732 18211 ft 342 kts 290°
2026-04-29 09:30 52.77682 4.22872 18345 ft 360 kts 290°
2026-04-29 09:31 52.78447 4.18830 18514 ft 378 kts 290°
2026-04-29 09:31 52.79266 4.14584 18694 ft 395 kts 291°
2026-04-29 09:31 52.80123 4.10198 19051 ft 406 kts 291°
2026-04-29 09:31 52.81006 4.05718 19538 ft 413 kts 291°
2026-04-29 09:32 52.81903 4.01194 20123 ft 416 kts 291°
2026-04-29 09:32 52.82801 3.96675 20699 ft 420 kts 291°
2026-04-29 09:32 52.83716 3.92068 21279 ft 423 kts 291°
2026-04-29 09:32 52.84641 3.87411 21798 ft 428 kts 291°
2026-04-29 09:33 52.85574 3.82703 22371 ft 432 kts 291°
2026-04-29 09:33 52.86511 3.77964 22954 ft 435 kts 290°
2026-04-29 09:33 52.87456 3.73176 23543 ft 439 kts 290°
2026-04-29 09:33 52.88402 3.68363 24084 ft 443 kts 290°
2026-04-29 09:34 52.89361 3.63478 24564 ft 447 kts 290°
2026-04-29 09:34 52.90324 3.58555 25054 ft 450 kts 290°
2026-04-29 09:34 52.91293 3.53591 25541 ft 454 kts 290°
2026-04-29 09:34 52.92266 3.48594 25950 ft 459 kts 290°
2026-04-29 09:35 52.93251 3.43521 26362 ft 463 kts 290°
2026-04-29 09:35 52.94236 3.38428 26820 ft 466 kts 290°
2026-04-29 09:35 52.95214 3.33362 27261 ft 469 kts 290°
2026-04-29 09:35 52.96223 3.28129 27696 ft 472 kts 290°
2026-04-29 09:36 52.97211 3.22989 28064 ft 476 kts 290°
2026-04-29 09:36 52.98217 3.17737 28452 ft 479 kts 290°
2026-04-29 09:36 52.99226 3.12441 28884 ft 481 kts 290°
2026-04-29 09:36 53.00234 3.07133 29300 ft 483 kts 290°
2026-04-29 09:37 53.00904 3.03592 29565 ft 485 kts 290°
2026-04-29 09:37 53.01916 2.98231 29894 ft 489 kts 290°
2026-04-29 09:37 53.02936 2.92819 30234 ft 492 kts 290°
2026-04-29 09:37 53.03957 2.87382 30570 ft 494 kts 290°
2026-04-29 09:38 53.04983 2.81907 30868 ft 496 kts 290°
2026-04-29 09:38 53.06008 2.76417 31156 ft 498 kts 290°
2026-04-29 09:38 53.07036 2.70898 31458 ft 500 kts 290°
2026-04-29 09:38 53.08062 2.65371 31759 ft 501 kts 290°
2026-04-29 09:39 53.09091 2.59823 32026 ft 503 kts 290°
2026-04-29 09:39 53.10122 2.54240 32230 ft 506 kts 289°
2026-04-29 09:39 53.11042 2.48563 32429 ft 510 kts 284°
2026-04-29 09:39 53.11620 2.42788 32626 ft 514 kts 279°
2026-04-29 09:40 53.12084 2.36864 32869 ft 515 kts 279°
2026-04-29 09:40 53.12532 2.30922 33167 ft 515 kts 279°
2026-04-29 09:40 53.12979 2.25007 33506 ft 514 kts 279°
2026-04-29 09:40 53.13433 2.19106 33854 ft 513 kts 279°
2026-04-29 09:41 53.13894 2.13219 34149 ft 513 kts 279°
2026-04-29 09:41 53.14360 2.07321 34442 ft 513 kts 280°
2026-04-29 09:41 53.14827 2.01438 34696 ft 513 kts 279°
2026-04-29 09:41 53.15293 1.95545 34905 ft 514 kts 279°
2026-04-29 09:42 53.15757 1.89648 35156 ft 513 kts 279°
2026-04-29 09:42 53.16216 1.83754 35457 ft 512 kts 279°
2026-04-29 09:42 53.16670 1.77887 35737 ft 511 kts 279°
2026-04-29 09:42 53.17121 1.72017 35999 ft 510 kts 279°
2026-04-29 09:43 53.17567 1.66160 36242 ft 509 kts 279°
2026-04-29 09:43 53.18011 1.60298 36478 ft 509 kts 279°
2026-04-29 09:43 53.18449 1.54466 36734 ft 508 kts 279°
2026-04-29 09:43 53.18885 1.48622 36920 ft 508 kts 278°
2026-04-29 09:44 53.19321 1.42745 37100 ft 509 kts 278°
2026-04-29 09:44 53.19748 1.36959 37320 ft 509 kts 278°
2026-04-29 09:44 53.20175 1.31116 37563 ft 508 kts 278°
2026-04-29 09:44 53.20599 1.25277 37802 ft 507 kts 278°
2026-04-29 09:45 53.21020 1.19450 38019 ft 506 kts 278°
2026-04-29 09:45 53.21437 1.13622 38218 ft 506 kts 278°
2026-04-29 09:45 53.21853 1.07780 38363 ft 506 kts 278°
2026-04-29 09:45 53.22266 1.01941 38400 ft 507 kts 278°
2026-04-29 09:46 53.23085 0.90233 38432 ft 506 kts 278°
2026-04-29 09:46 53.23888 0.78566 38437 ft 505 kts 277°
2026-04-29 09:47 53.24675 0.66971 38436 ft 505 kts 277°
2026-04-29 09:47 53.25454 0.55311 38433 ft 504 kts 278°
2026-04-29 09:48 53.26223 0.43673 38427 ft 504 kts 277°
2026-04-29 09:48 53.26979 0.32024 38427 ft 504 kts 277°
2026-04-29 09:49 53.27723 0.20378 38426 ft 505 kts 277°
2026-04-29 09:49 53.28459 0.08707 38429 ft 505 kts 277°
2026-04-29 09:50 53.29507 -0.02878 38432 ft 504 kts 284°
2026-04-29 09:50 53.31037 -0.14244 38430 ft 505 kts 284°
2026-04-29 09:51 53.32589 -0.25722 38414 ft 506 kts 284°
2026-04-29 09:51 53.34102 -0.37227 38413 ft 507 kts 284°
2026-04-29 09:52 53.35587 -0.48763 38415 ft 507 kts 283°
2026-04-29 09:52 53.37057 -0.60309 38416 ft 508 kts 283°
2026-04-29 09:53 53.38521 -0.71884 38416 ft 507 kts 283°
2026-04-29 09:53 53.39974 -0.83460 38422 ft 507 kts 283°
2026-04-29 09:54 53.41418 -0.95058 38423 ft 507 kts 283°
2026-04-29 09:54 53.42839 -1.06569 38424 ft 507 kts 283°
2026-04-29 09:55 53.44258 -1.18159 38428 ft 507 kts 283°
2026-04-29 09:55 53.45667 -1.29769 38427 ft 508 kts 283°
2026-04-29 09:56 53.47064 -1.41388 38429 ft 508 kts 283°
2026-04-29 09:56 53.48451 -1.53015 38421 ft 508 kts 282°
2026-04-29 09:57 53.49828 -1.64666 38422 ft 509 kts 282°
2026-04-29 09:57 53.51197 -1.76355 38418 ft 510 kts 282°
2026-04-29 09:58 53.52555 -1.88056 38410 ft 511 kts 282°
2026-04-29 09:58 53.53905 -1.99790 38402 ft 511 kts 282°
2026-04-29 09:59 53.55244 -2.11527 38406 ft 511 kts 282°
2026-04-29 09:59 53.56560 -2.23180 38406 ft 510 kts 282°
2026-04-29 10:00 53.57872 -2.34907 38398 ft 510 kts 282°
2026-04-29 10:00 53.59171 -2.46628 38406 ft 509 kts 281°
2026-04-29 10:01 53.60461 -2.58381 38400 ft 509 kts 281°
2026-04-29 10:01 53.61739 -2.70130 38410 ft 509 kts 281°
2026-04-29 10:02 53.62995 -2.81783 38400 ft 509 kts 281°
2026-04-29 10:02 53.64246 -2.93516 38403 ft 509 kts 281°
2026-04-29 10:03 53.65490 -3.05285 38403 ft 509 kts 281°
2026-04-29 10:03 53.66719 -3.17042 38402 ft 510 kts 281°
2026-04-29 10:04 53.67941 -3.28833 38411 ft 510 kts 281°
2026-04-29 10:04 53.69153 -3.40655 38397 ft 511 kts 281°
2026-04-29 10:05 53.70345 -3.52409 38404 ft 511 kts 281°
2026-04-29 10:05 53.71533 -3.64237 38410 ft 510 kts 281°
2026-04-29 10:06 53.72714 -3.76115 38406 ft 513 kts 281°
2026-04-29 10:06 53.73887 -3.88038 38406 ft 515 kts 281°
2026-04-29 10:07 53.75050 -3.99990 38401 ft 516 kts 281°
2026-04-29 10:07 53.76197 -4.11905 38396 ft 517 kts 280°
2026-04-29 10:08 53.77341 -4.23929 38397 ft 518 kts 280°
2026-04-29 10:08 53.78472 -4.35935 38391 ft 518 kts 280°
2026-04-29 10:09 53.79597 -4.47996 38382 ft 517 kts 280°
2026-04-29 10:09 53.80290 -4.60124 38404 ft 518 kts 274°
2026-04-29 10:10 53.80649 -4.72291 38397 ft 517 kts 274°
2026-04-29 10:10 53.81059 -4.84447 38409 ft 517 kts 274°
2026-04-29 10:11 53.81451 -4.96582 38411 ft 516 kts 274°
2026-04-29 10:11 53.81818 -5.08647 38413 ft 516 kts 274°
2026-04-29 10:12 53.82177 -5.20721 38411 ft 516 kts 274°
2026-04-29 10:12 53.82528 -5.32891 38404 ft 515 kts 274°
2026-04-29 10:13 53.82875 -5.44999 38417 ft 514 kts 275°
2026-04-29 10:13 53.83971 -5.56909 38414 ft 511 kts 287°
2026-04-29 10:14 53.85855 -5.68510 38420 ft 510 kts 288°
2026-04-29 10:14 53.87736 -5.80110 38418 ft 509 kts 287°
2026-04-29 10:15 53.89558 -5.91651 38415 ft 509 kts 287°
2026-04-29 10:15 53.91356 -6.03252 38420 ft 509 kts 287°
2026-04-29 10:16 53.92841 -6.12919 38415 ft 509 kts 287°
2026-04-29 10:16 53.94915 -6.26498 38415 ft 508 kts 287°
2026-04-29 10:17 53.96680 -6.38134 38407 ft 509 kts 287°
2026-04-29 10:17 53.98435 -6.49784 38410 ft 510 kts 287°
2026-04-29 10:18 54.00185 -6.61492 38407 ft 511 kts 286°
2026-04-29 10:18 54.01925 -6.73220 38407 ft 512 kts 286°
2026-04-29 10:19 54.03645 -6.84897 38392 ft 513 kts 286°
2026-04-29 10:19 54.05365 -6.96660 38391 ft 512 kts 286°
2026-04-29 10:20 54.07069 -7.08404 38385 ft 510 kts 286°
2026-04-29 10:20 54.08760 -7.20145 38384 ft 509 kts 286°
2026-04-29 10:21 54.10432 -7.31844 38384 ft 508 kts 286°
2026-04-29 10:21 54.12091 -7.43537 38373 ft 507 kts 285°
2026-04-29 10:22 54.13737 -7.55229 38389 ft 508 kts 285°
2026-04-29 10:22 54.15376 -7.66953 38381 ft 513 kts 285°
2026-04-29 10:23 54.17021 -7.78824 38391 ft 516 kts 285°
2026-04-29 10:23 54.18668 -7.90798 38371 ft 518 kts 285°
2026-04-29 10:24 54.20026 -8.00753 38372 ft 519 kts 285°
2026-04-29 10:24 54.21658 -8.12801 38361 ft 519 kts 285°
2026-04-29 10:25 54.23272 -8.24813 38360 ft 516 kts 284°
2026-04-29 10:25 54.24861 -8.36740 38350 ft 513 kts 284°
2026-04-29 10:26 54.26430 -8.48607 38370 ft 511 kts 284°
2026-04-29 10:26 54.27984 -8.60460 38374 ft 509 kts 284°
2026-04-29 10:27 54.30283 -8.78168 38382 ft 512 kts 284°
2026-04-29 10:28 54.31818 -8.90116 38376 ft 515 kts 284°
2026-04-29 10:28 54.33349 -9.02137 38371 ft 517 kts 284°
2026-04-29 10:29 54.34876 -9.14238 38365 ft 519 kts 284°
2026-04-29 10:29 54.36388 -9.26320 38362 ft 519 kts 284°
2026-04-29 10:30 54.37879 -9.38339 38364 ft 518 kts 283°
2026-04-29 10:30 54.39365 -9.50418 38370 ft 515 kts 283°
2026-04-29 10:31 54.40829 -9.62430 38370 ft 512 kts 283°
2026-04-29 10:31 54.42237 -9.74088 38370 ft 510 kts 282°
2026-04-29 10:32 54.43661 -9.85972 38369 ft 509 kts 282°
2026-04-29 10:32 54.45065 -9.97799 38373 ft 509 kts 282°
2026-04-29 10:32 54.45773 -10.03823 38792 ft 488 kts 281°
2026-04-29 10:33 54.46206 -10.08861 41934 ft 393 kts 276°
2026-04-29 10:33 54.46531 -10.13474 42319 ft 398 kts 280°
2026-04-29 10:33 54.47126 -10.18409 40961 ft 434 kts 284°
2026-04-29 10:33 54.47891 -10.23515 40305 ft 453 kts 285°
2026-04-29 10:34 54.48696 -10.28751 40148 ft 460 kts 285°
2026-04-29 10:34 54.49498 -10.34153 39913 ft 468 kts 284°
2026-04-29 10:34 54.50272 -10.39639 39679 ft 477 kts 284°
2026-04-29 10:34 54.51026 -10.45242 39475 ft 485 kts 283°
2026-04-29 10:35 54.51770 -10.50954 39246 ft 493 kts 283°
2026-04-29 10:35 54.52508 -10.56756 39009 ft 500 kts 283°
2026-04-29 10:35 54.53247 -10.62632 38735 ft 507 kts 283°
2026-04-29 10:35 54.53992 -10.68584 38565 ft 509 kts 282°
2026-04-29 10:36 54.54736 -10.74551 38461 ft 505 kts 282°
2026-04-29 10:36 54.56195 -10.86304 38421 ft 499 kts 282°
2026-04-29 10:37 54.57628 -10.97913 38397 ft 499 kts 282°
2026-04-29 10:37 54.59069 -11.09665 38389 ft 502 kts 282°
2026-04-29 10:38 54.60510 -11.21513 38391 ft 505 kts 282°
2026-04-29 10:38 54.61942 -11.33402 38382 ft 507 kts 282°
2026-04-29 10:39 54.63365 -11.45318 38387 ft 508 kts 282°
2026-04-29 10:39 54.64781 -11.57280 38371 ft 509 kts 282°
2026-04-29 10:40 54.66184 -11.69250 38366 ft 508 kts 281°
2026-04-29 10:40 54.67576 -11.81227 38365 ft 508 kts 281°
2026-04-29 10:41 54.68955 -11.93200 38376 ft 505 kts 281°
2026-04-29 10:41 54.69616 -11.98985 38351 ft 494 kts 281°
2026-04-29 10:41 54.70269 -12.04720 38356 ft 483 kts 281°
2026-04-29 10:42 54.71558 -12.16124 38377 ft 480 kts 281°
2026-04-29 10:42 54.72843 -12.27439 38362 ft 481 kts 281°
2026-04-29 10:43 54.74112 -12.38814 38375 ft 481 kts 281°
2026-04-29 10:43 54.75360 -12.50176 38369 ft 481 kts 281°
2026-04-29 10:44 54.76602 -12.61583 38381 ft 481 kts 280°
2026-04-29 10:44 54.77823 -12.72895 38356 ft 480 kts 280°
2026-04-29 10:45 54.79040 -12.84260 38367 ft 480 kts 280°
2026-04-29 10:45 54.80247 -12.95644 38361 ft 480 kts 280°
2026-04-29 10:46 54.81444 -13.07032 38363 ft 479 kts 280°
2026-04-29 10:46 54.82624 -13.18370 38372 ft 478 kts 279°
2026-04-29 10:47 54.83791 -13.29691 38352 ft 476 kts 279°
2026-04-29 10:47 54.84942 -13.40971 38358 ft 474 kts 279°
2026-04-29 10:48 54.86073 -13.52165 38364 ft 472 kts 279°
2026-04-29 10:48 54.87197 -13.63386 38361 ft 471 kts 279°
2026-04-29 10:49 54.88307 -13.74584 38361 ft 470 kts 278°
2026-04-29 10:49 54.89407 -13.85792 38345 ft 470 kts 278°
2026-04-29 10:50 54.90490 -13.96932 38343 ft 470 kts 278°
2026-04-29 10:50 54.91568 -14.08132 38340 ft 469 kts 278°
2026-04-29 10:51 54.92634 -14.19329 38352 ft 470 kts 278°
2026-04-29 10:51 54.93692 -14.30550 38353 ft 470 kts 278°
2026-04-29 10:52 54.94742 -14.41795 38345 ft 469 kts 277°
2026-04-29 10:52 54.95768 -14.52909 38345 ft 468 kts 277°
2026-04-29 10:53 54.96792 -14.64107 38341 ft 467 kts 277°
2026-04-29 10:53 54.97803 -14.75283 38344 ft 466 kts 277°
2026-04-29 10:54 54.98796 -14.86380 38346 ft 465 kts 277°
2026-04-29 10:54 54.99782 -14.97508 38351 ft 465 kts 276°
2026-04-29 10:55 55.00256 -15.08660 38343 ft 462 kts 269°
2026-04-29 10:55 55.00430 -15.19858 38339 ft 461 kts 269°
2026-04-29 10:56 55.00602 -15.31016 38334 ft 461 kts 269°
2026-04-29 10:56 55.00786 -15.42185 38335 ft 461 kts 269°
2026-04-29 10:57 55.00972 -15.53355 38341 ft 461 kts 269°
2026-04-29 10:57 55.01146 -15.64454 38333 ft 461 kts 269°
2026-04-29 10:58 55.01312 -15.75651 38332 ft 461 kts 269°
2026-04-29 10:58 55.01467 -15.86814 38331 ft 461 kts 269°
2026-04-29 10:59 55.01612 -15.97989 38329 ft 461 kts 269°
2026-04-29 10:59 55.01746 -16.09101 38340 ft 461 kts 268°
2026-04-29 11:00 55.01869 -16.20293 38325 ft 461 kts 268°
2026-04-29 11:00 55.01983 -16.31478 38329 ft 461 kts 268°
2026-04-29 11:01 55.02086 -16.42579 38323 ft 461 kts 268°
2026-04-29 11:01 55.02179 -16.53732 38320 ft 460 kts 268°
2026-04-29 11:02 55.02262 -16.64907 38329 ft 460 kts 268°
2026-04-29 11:02 55.02335 -16.76099 38319 ft 461 kts 268°
2026-04-29 11:03 55.02398 -16.87270 38322 ft 460 kts 268°
2026-04-29 11:03 55.02450 -16.98421 38321 ft 460 kts 268°
2026-04-29 11:04 55.02492 -17.09608 38315 ft 461 kts 267°
2026-04-29 11:04 55.02524 -17.20708 38310 ft 461 kts 267°
2026-04-29 11:05 55.02546 -17.31880 38319 ft 463 kts 267°
2026-04-29 11:05 55.02556 -17.43159 38320 ft 468 kts 267°
2026-04-29 11:06 55.02557 -17.54539 38315 ft 472 kts 267°
2026-04-29 11:06 55.02548 -17.65988 38314 ft 474 kts 267°
2026-04-29 11:07 55.02528 -17.77461 38311 ft 475 kts 267°
2026-04-29 11:07 55.02497 -17.88942 38298 ft 474 kts 267°
2026-04-29 11:08 55.02456 -18.00415 38299 ft 472 kts 267°
2026-04-29 11:08 55.02404 -18.11851 38300 ft 471 kts 267°
2026-04-29 11:09 55.02340 -18.23275 38292 ft 470 kts 267°
2026-04-29 11:09 55.02266 -18.34659 38305 ft 469 kts 267°
2026-04-29 11:10 55.02182 -18.46008 38292 ft 469 kts 266°
2026-04-29 11:10 55.02087 -18.57377 38294 ft 468 kts 266°
2026-04-29 11:11 55.01982 -18.68719 38291 ft 468 kts 266°
2026-04-29 11:11 55.01867 -18.80025 38292 ft 468 kts 266°
2026-04-29 11:12 55.01739 -18.91434 38309 ft 472 kts 266°
2026-04-29 11:12 55.01601 -19.02891 38292 ft 475 kts 266°
2026-04-29 11:13 55.01451 -19.14414 38280 ft 477 kts 266°
2026-04-29 11:13 55.01290 -19.25987 38278 ft 479 kts 266°
2026-04-29 11:14 55.01147 -19.35662 38277 ft 480 kts 266°
2026-04-29 11:14 55.00965 -19.47285 38304 ft 481 kts 266°
2026-04-29 11:15 55.00773 -19.58852 38269 ft 477 kts 265°
2026-04-29 11:15 55.00674 -19.64625 38255 ft 464 kts 265°
2026-04-29 11:15 55.00578 -19.70167 38250 ft 452 kts 265°
2026-04-29 11:16 55.00374 -19.81061 38263 ft 453 kts 265°
2026-04-29 11:16 55.00162 -19.92008 38260 ft 453 kts 265°
2026-04-29 11:17 55.00062 -20.02985 38261 ft 455 kts 270°
2026-04-29 11:17 55.00510 -20.13996 38258 ft 455 kts 271°
2026-04-29 11:18 55.00978 -20.24962 38254 ft 454 kts 271°
2026-04-29 11:18 55.01418 -20.35908 38252 ft 453 kts 271°
2026-04-29 11:19 55.01834 -20.46846 38243 ft 452 kts 271°
2026-04-29 11:19 55.02236 -20.57785 38242 ft 451 kts 270°
2026-04-29 11:20 55.02626 -20.68684 38258 ft 450 kts 270°
2026-04-29 11:20 55.03005 -20.79528 38243 ft 450 kts 270°
2026-04-29 11:21 55.03375 -20.90387 38256 ft 449 kts 270°
2026-04-29 11:21 55.03736 -21.01251 38240 ft 448 kts 270°
2026-04-29 11:22 55.04085 -21.12095 38227 ft 447 kts 269°
2026-04-29 11:22 55.04424 -21.22896 38232 ft 446 kts 269°
2026-04-29 11:23 55.04752 -21.33628 38233 ft 445 kts 269°
2026-04-29 11:23 55.05071 -21.44416 38224 ft 444 kts 269°
2026-04-29 11:24 55.05380 -21.55172 38217 ft 443 kts 269°
2026-04-29 11:24 55.05679 -21.65892 38217 ft 443 kts 269°
2026-04-29 11:25 55.05968 -21.76625 38212 ft 443 kts 269°
2026-04-29 11:25 55.06248 -21.87362 38238 ft 442 kts 268°
2026-04-29 11:26 55.06648 -22.03386 38204 ft 442 kts 268°
2026-04-29 11:26 55.06905 -22.14119 38202 ft 442 kts 268°
2026-04-29 11:27 55.07152 -22.24845 38206 ft 442 kts 268°
2026-04-29 11:27 55.07388 -22.35543 38197 ft 441 kts 268°
2026-04-29 11:28 55.07615 -22.46221 38200 ft 440 kts 267°
2026-04-29 11:28 55.07833 -22.56871 38190 ft 439 kts 267°
2026-04-29 11:29 55.08040 -22.67508 38186 ft 438 kts 267°
2026-04-29 11:29 55.08236 -22.78049 38188 ft 437 kts 266°
2026-04-29 11:30 55.08424 -22.88645 38188 ft 436 kts 266°
2026-04-29 11:30 55.08602 -22.99189 38180 ft 435 kts 266°
2026-04-29 11:31 55.08771 -23.09768 38178 ft 435 kts 266°
2026-04-29 11:31 55.08931 -23.20319 38175 ft 435 kts 266°
2026-04-29 11:32 55.09082 -23.30887 38174 ft 435 kts 266°
2026-04-29 11:32 55.09224 -23.41469 38175 ft 435 kts 266°
2026-04-29 11:33 55.09357 -23.52021 38182 ft 435 kts 265°
2026-04-29 11:33 55.09465 -23.61286 38165 ft 435 kts 265°
2026-04-29 11:34 55.09581 -23.71841 38169 ft 435 kts 265°
2026-04-29 11:34 55.09687 -23.82422 38163 ft 434 kts 265°
2026-04-29 11:35 55.09785 -23.92969 38154 ft 433 kts 265°
2026-04-29 11:35 55.09872 -24.03477 38156 ft 433 kts 265°
2026-04-29 11:36 55.09950 -24.13971 38151 ft 432 kts 264°
2026-04-29 11:36 55.10020 -24.24468 38149 ft 431 kts 264°
2026-04-29 11:37 55.10081 -24.34941 38159 ft 431 kts 264°
2026-04-29 11:37 55.10131 -24.45354 38143 ft 431 kts 264°
2026-04-29 11:38 55.10173 -24.55817 38151 ft 430 kts 264°
2026-04-29 11:38 55.10206 -24.66288 38140 ft 431 kts 264°
2026-04-29 11:39 55.10231 -24.76743 38148 ft 430 kts 264°
2026-04-29 11:39 55.10246 -24.87224 38170 ft 432 kts 263°
2026-04-29 11:40 55.10252 -24.97623 38139 ft 431 kts 263°
2026-04-29 11:40 55.10251 -25.08095 38143 ft 430 kts 262°
2026-04-29 11:41 55.10240 -25.18527 38146 ft 429 kts 262°
2026-04-29 11:41 55.10219 -25.28962 38152 ft 429 kts 262°
2026-04-29 11:42 55.10189 -25.39385 38151 ft 430 kts 262°
2026-04-29 11:42 55.10151 -25.49783 38168 ft 431 kts 262°
2026-04-29 11:43 55.10104 -25.60268 38143 ft 431 kts 262°
2026-04-29 11:43 55.10049 -25.70720 38153 ft 430 kts 262°
2026-04-29 11:44 55.09984 -25.81155 38154 ft 429 kts 262°
2026-04-29 11:44 55.09911 -25.91576 38158 ft 429 kts 262°
2026-04-29 11:45 55.09828 -26.01991 38155 ft 428 kts 262°
2026-04-29 11:45 55.09736 -26.12385 38213 ft 429 kts 261°
2026-04-29 11:46 55.09635 -26.22818 38166 ft 429 kts 261°
2026-04-29 11:46 55.09526 -26.33240 38161 ft 429 kts 261°
2026-04-29 11:47 55.09410 -26.43590 38164 ft 429 kts 261°
2026-04-29 11:47 55.09283 -26.53991 38163 ft 428 kts 261°
2026-04-29 11:48 55.09147 -26.64396 38169 ft 428 kts 261°
2026-04-29 11:48 55.09002 -26.74793 38176 ft 429 kts 261°
2026-04-29 11:49 55.08848 -26.85202 38178 ft 429 kts 261°
2026-04-29 11:49 55.08687 -26.95559 38177 ft 429 kts 261°
2026-04-29 11:50 55.08515 -27.05993 38181 ft 430 kts 261°
2026-04-29 11:50 55.08335 -27.16416 38183 ft 430 kts 261°
2026-04-29 11:51 55.08145 -27.26853 38183 ft 430 kts 261°
2026-04-29 11:51 55.07946 -27.37306 38236 ft 431 kts 261°
2026-04-29 11:52 55.07737 -27.47799 38194 ft 433 kts 261°
2026-04-29 11:52 55.07519 -27.58318 38192 ft 434 kts 261°
2026-04-29 11:53 55.07292 -27.68810 38196 ft 435 kts 261°
2026-04-29 11:53 55.07056 -27.79367 38196 ft 436 kts 261°